Location: Unspecified
(0.0000°N, 0.0000°E)
Time: 17:50:11
(UTC+00:00)

Vanguard 3 - Pass Details

Date: 09 February 2023
Orbit: 509 x 3249 km, 33.3° (Epoch: 20 March)

Event Time Altitude Azimuth Distance (km) Brightness Sun altitude
Rises 11:40:05 0° 215° (SW) 3,204 10.3 73.1°
Reaches altitude 10° 11:43:24 10° 197° (SSW) 1,990 9.5 73.5°
Maximum altitude 11:46:29 19° 151° (SSE) 1,336 8.9 73.8°
Drops below altitude 10° 11:49:11 10° 103° (ESE) 1,719 9.1 74.1°
Sets 11:51:46 0° 83° (E) 2,607 9.8 74.3°
